| time (UTC) | temp F | wind direction | speed MPH | gust MPH | rain 1hr in | rain 24hr in | rain mn in | humidity % | barometer mb |
| 20260504081338 | 55 | 256 | 8.0 | 10.0 | 0.00 | 0.00 | 0.00 | 100 | 1000.4 |
| 20260504080658 | 56 | 257 | 8.0 | 11.0 | 0.00 | 0.00 | 0.00 | 100 | 1000.5 |
| 20260504070229 | 57 | 254 | 8.0 | 13.0 | 0.00 | 0.00 | 0.00 | 100 | 1000.6 |
| 20260504050658 | 58 | 253 | 8.0 | 12.0 | 0.00 | 0.00 | 0.00 | 100 | 1001.6 |
| 20260504050230 | 58 | 253 | 8.0 | 11.0 | 0.00 | 0.00 | 0.00 | 100 | 1001.6 |
| 20260504045338 | 58 | 248 | 7.0 | 10.0 | 0.00 | 0.00 | 0.00 | 100 | 1001.6 |
| 20260504044911 | 58 | 241 | 6.0 | 9.0 | 0.00 | 0.00 | 0.00 | 100 | 1001.6 |
| 20260504044018 | 58 | 236 | 7.0 | 9.0 | 0.00 | 0.00 | 0.00 | 100 | 1001.6 |
| 20260504043338 | 58 | 238 | 6.0 | 10.0 | 0.00 | 0.00 | 0.00 | 100 | 1001.6 |
| 20260504042658 | 58 | 238 | 7.0 | 10.0 | 0.00 | 0.00 | 0.00 | 100 | 1001.7 |
| 20260504042018 | 58 | 236 | 7.0 | 9.0 | 0.00 | 0.00 | 0.00 | 100 | 1001.7 |
| 20260504041338 | 58 | 229 | 7.0 | 9.0 | 0.00 | 0.00 | 0.00 | 100 | 1001.7 |
| 20260504040658 | 58 | 234 | 7.0 | 9.0 | 0.00 | 0.00 | 0.00 | 100 | 1001.8 |
| 20260504040018 | 59 | 232 | 6.0 | 10.0 | 0.00 | 0.00 | 0.00 | 100 | 1001.8 |
| 20260504035338 | 59 | 230 | 7.0 | 9.0 | 0.00 | 0.00 | 0.00 | 100 | 1001.8 |
| 20260504034912 | 59 | 233 | 7.0 | 9.0 | 0.00 | 0.00 | 0.00 | 100 | 1001.9 |
| 20260504034018 | 59 | 232 | 6.0 | 9.0 | 0.00 | 0.00 | 0.00 | 100 | 1001.9 |
| 20260504033548 | 59 | 227 | 7.0 | 9.0 | 0.00 | 0.00 | 0.00 | 100 | 1002.0 |
| 20260504032658 | 59 | 229 | 6.0 | 9.0 | 0.00 | 0.00 | 0.00 | 100 | 1002.0 |
| 20260504032018 | 59 | 232 | 7.0 | 8.0 | 0.00 | 0.00 | 0.00 | 100 | 1002.0 |
| 20260504031338 | 59 | 239 | 7.0 | 9.0 | 0.00 | 0.00 | 0.00 | 100 | 1002.1 |
| 20260504030658 | 59 | 236 | 7.0 | 9.0 | 0.00 | 0.00 | 0.00 | 100 | 1002.1 |
| 20260504030018 | 59 | 239 | 6.0 | 8.0 | 0.00 | 0.00 | 0.00 | 100 | 1002.1 |
| 20260504025338 | 59 | 227 | 5.0 | 8.0 | 0.00 | 0.00 | 0.00 | 100 | 1002.0 |
| 20260504024658 | 59 | 232 | 7.0 | 8.0 | 0.00 | 0.00 | 0.00 | 100 | 1002.2 |
| 20260504024018 | 59 | 231 | 5.0 | 7.0 | 0.00 | 0.00 | 0.00 | 100 | 1002.1 |
| 20260504023549 | 59 | 227 | 6.0 | 7.0 | 0.00 | 0.00 | 0.00 | 100 | 1002.1 |
| 20260504022658 | 58 | 228 | 5.0 | 7.0 | 0.00 | 0.00 | 0.00 | 100 | 1001.9 |
| 20260504022018 | 58 | 227 | 6.0 | 7.0 | 0.00 | 0.00 | 0.00 | 100 | 1001.9 |
| 20260504021338 | 58 | 223 | 5.0 | 8.0 | 0.00 | 0.00 | 0.00 | 100 | 1001.8 |
| 20260504020658 | 58 | 223 | 5.0 | 8.0 | 0.00 | 0.00 | 0.00 | 100 | 1001.7 |
| 20260504020018 | 57 | 222 | 5.0 | 8.0 | 0.00 | 0.00 | 0.00 | 100 | 1001.7 |
| 20260504015338 | 57 | 217 | 5.0 | 9.0 | 0.00 | 0.00 | 0.00 | 100 | 1001.6 |
| 20260504014658 | 57 | 210 | 6.0 | 10.0 | 0.00 | 0.00 | 0.00 | 100 | 1001.5 |
| 20260504014018 | 57 | 200 | 8.0 | 11.0 | 0.00 | 0.00 | 0.00 | 100 | 1001.4 |
| 20260504013338 | 57 | 197 | 7.0 | 11.0 | 0.00 | 0.00 | 0.00 | 100 | 1001.3 |
| 20260504012658 | 57 | 196 | 7.0 | 11.0 | 0.00 | 0.00 | 0.00 | 100 | 1001.3 |
| 20260504012018 | 56 | 195 | 7.0 | 11.0 | 0.00 | 0.00 | 0.00 | 100 | 1001.4 |
| 20260504011551 | 56 | 195 | 7.0 | 12.0 | 0.00 | 0.00 | 0.00 | 100 | 1001.3 |
| 20260504010912 | 56 | 196 | 7.0 | 12.0 | 0.00 | 0.00 | 0.00 | 100 | 1001.3 |
| 20260504010018 | 56 | 186 | 8.0 | 13.0 | 0.00 | 0.00 | 0.00 | 100 | 1001.3 |
| 20260504005338 | 56 | 192 | 9.0 | 13.0 | 0.00 | 0.00 | 0.00 | 100 | 1001.3 |
| 20260504004909 | 56 | 188 | 8.0 | 13.0 | 0.00 | 0.00 | 0.00 | 100 | 1001.3 |
| 20260504004018 | 56 | 186 | 9.0 | 13.0 | 0.00 | 0.00 | 0.00 | 100 | 1001.2 |
| 20260504003338 | 56 | 186 | 9.0 | 13.0 | 0.00 | 0.00 | 0.00 | 100 | 1001.4 |
| 20260504002658 | 56 | 181 | 9.0 | 13.0 | 0.00 | 0.00 | 0.00 | 100 | 1001.3 |
| 20260504002231 | 56 | 186 | 10.0 | 14.0 | 0.00 | 0.00 | 0.00 | 100 | 1001.3 |
| 20260504001338 | 56 | 184 | 11.0 | 14.0 | 0.00 | 0.00 | 0.00 | 100 | 1001.3 |
| 20260504000658 | 57 | 175 | 8.0 | 13.0 | 0.00 | 0.00 | 0.00 | 100 | 1001.4 |
| 20260504000228 | 57 | 169 | 8.0 | 13.0 | 0.00 | 0.00 | 0.00 | 100 | 1001.3 |
| 20260503235338 | 57 | 172 | 9.0 | 14.0 | 0.00 | 0.00 | 0.00 | 100 | 1001.3 |
| 20260503234909 | 57 | 173 | 10.0 | 14.0 | 0.00 | 0.00 | 0.00 | 100 | 1001.3 |
| 20260503234230 | 58 | 169 | 9.0 | 15.0 | 0.00 | 0.00 | 0.00 | 100 | 1001.3 |
| 20260503233338 | 59 | 164 | 10.0 | 15.0 | 0.00 | 0.00 | 0.00 | 100 | 1000.9 |
| 20260503232658 | 61 | 163 | 9.0 | 21.0 | 0.00 | 0.00 | 0.00 | 100 | 1000.8 |
| 20260503232018 | 67 | 213 | 13.0 | 21.0 | 0.00 | 0.00 | 0.00 | 100 | 1001.3 |
| 20260503231338 | 67 | 235 | 13.0 | 27.0 | 0.00 | 0.00 | 0.00 | 100 | 1001.5 |
| 20260503230658 | 67 | 224 | 13.0 | 23.0 | 0.00 | 0.00 | 0.00 | 100 | 1001.6 |
| 20260503230018 | 67 | 233 | 13.0 | 25.0 | 0.00 | 0.00 | 0.00 | 100 | 1001.6 |
| 20260503225338 | 67 | 250 | 14.0 | 23.0 | 0.00 | 0.00 | 0.00 | 100 | 1001.8 |
| 20260503224658 | 67 | 241 | 10.0 | 26.0 | 0.00 | 0.00 | 0.00 | 100 | 1002.0 |
| 20260503224018 | 67 | 239 | 16.0 | 26.0 | 0.00 | 0.00 | 0.00 | 100 | 1001.9 |
| 20260503223338 | 67 | 220 | 13.0 | 28.0 | 0.00 | 0.00 | 0.00 | 100 | 1001.9 |
| 20260503222658 | 67 | 234 | 15.0 | 28.0 | 0.00 | 0.00 | 0.00 | 100 | 1001.8 |
| 20260503222018 | 67 | 221 | 15.0 | 31.0 | 0.00 | 0.00 | 0.00 | 100 | 1001.8 |
| 20260503221338 | 67 | 230 | 14.0 | 25.0 | 0.00 | 0.00 | 0.00 | 100 | 1001.8 |
| 20260503220658 | 67 | 213 | 14.0 | 27.0 | 0.00 | 0.00 | 0.00 | 100 | 1001.9 |
| 20260503220018 | 67 | 223 | 14.0 | 26.0 | 0.00 | 0.00 | 0.00 | 100 | 1002.0 |
| 20260503215338 | 66 | 215 | 18.0 | 27.0 | 0.00 | 0.00 | 0.00 | 100 | 1001.8 |
| 20260503214658 | 66 | 207 | 13.0 | 26.0 | 0.00 | 0.00 | 0.00 | 100 | 1001.8 |
| 20260503214018 | 66 | 222 | 16.0 | 27.0 | 0.00 | 0.00 | 0.00 | 100 | 1001.9 |
| 20260503213338 | 67 | 244 | 12.0 | 26.0 | 0.00 | 0.00 | 0.00 | 100 | 1002.3 |
| 20260503212658 | 66 | 256 | 16.0 | 30.0 | 0.00 | 0.00 | 0.00 | 100 | 1002.2 |
| 20260503212018 | 65 | 236 | 22.0 | 31.0 | 0.00 | 0.00 | 0.00 | 100 | 1002.0 |
| 20260503211338 | 66 | 249 | 17.0 | 28.0 | 0.00 | 0.00 | 0.00 | 100 | 1002.2 |
| 20260503210658 | 65 | 253 | 14.0 | 30.0 | 0.00 | 0.00 | 0.00 | 100 | 1002.5 |
| 20260503210018 | 65 | 218 | 17.0 | 30.0 | 0.00 | 0.00 | 0.00 | 100 | 1002.4 |
| 20260503205338 | 66 | 230 | 13.0 | 29.0 | 0.00 | 0.00 | 0.00 | 100 | 1002.6 |
| 20260503204658 | 66 | 232 | 15.0 | 30.0 | 0.00 | 0.00 | 0.00 | 100 | 1002.5 |
| 20260503204018 | 65 | 228 | 17.0 | 31.0 | 0.00 | 0.00 | 0.00 | 100 | 1002.7 |
| 20260503203338 | 66 | 221 | 13.0 | 32.0 | 0.00 | 0.00 | 0.00 | 100 | 1003.1 |
| 20260503202658 | 66 | 247 | 14.0 | 30.0 | 0.00 | 0.00 | 0.00 | 100 | 1003.2 |
| 20260503202018 | 66 | 223 | 17.0 | 32.0 | 0.00 | 0.00 | 0.00 | 100 | 1002.9 |
| 20260503201338 | 64 | 214 | 19.0 | 31.0 | 0.00 | 0.00 | 0.00 | 100 | 1002.8 |
| 20260503200658 | 65 | 220 | 18.0 | 34.0 | 0.00 | 0.00 | 0.00 | 100 | 1003.2 |
| 20260503200018 | 65 | 237 | 17.0 | 34.0 | 0.00 | 0.00 | 0.00 | 100 | 1003.4 |
| 20260503195338 | 66 | 224 | 14.0 | 28.0 | 0.00 | 0.00 | 0.00 | 100 | 1003.8 |
| 20260503194658 | 65 | 216 | 17.0 | 32.0 | 0.00 | 0.00 | 0.00 | 100 | 1003.7 |
| 20260503194018 | 64 | 237 | 22.0 | 31.0 | 0.00 | 0.00 | 0.00 | 100 | 1003.4 |
| 20260503193338 | 64 | 203 | 18.0 | 31.0 | 0.00 | 0.00 | 0.00 | 100 | 1003.9 |
| 20260503192658 | 64 | 197 | 16.0 | 28.0 | 0.00 | 0.00 | 0.00 | 100 | 1003.7 |
| 20260503192018 | 65 | 220 | 13.0 | 31.0 | 0.00 | 0.00 | 0.00 | 100 | 1004.2 |
| 20260503191338 | 64 | 244 | 20.0 | 38.0 | 0.00 | 0.00 | 0.00 | 100 | 1004.1 |
| 20260503190658 | 64 | 229 | 21.0 | 38.0 | 0.00 | 0.00 | 0.00 | 100 | 1004.1 |
| 20260503190018 | 63 | 230 | 20.0 | 31.0 | 0.00 | 0.00 | 0.00 | 100 | 1004.3 |
| 20260503185338 | 64 | 245 | 17.0 | 32.0 | 0.00 | 0.00 | 0.00 | 100 | 1004.4 |
| 20260503184658 | 63 | 216 | 19.0 | 33.0 | 0.00 | 0.00 | 0.00 | 100 | 1004.4 |
| 20260503184018 | 63 | 242 | 20.0 | 36.0 | 0.00 | 0.00 | 0.00 | 100 | 1004.4 |
| 20260503183338 | 62 | 226 | 22.0 | 36.0 | 0.00 | 0.00 | 0.00 | 100 | 1004.5 |
| 20260503182658 | 62 | 216 | 19.0 | 35.0 | 0.00 | 0.00 | 0.00 | 100 | 1004.6 |
| 20260503182018 | 62 | 205 | 18.0 | 35.0 | 0.00 | 0.00 | 0.00 | 100 | 1004.7 |
| 20260503181338 | 62 | 224 | 19.0 | 36.0 | 0.00 | 0.00 | 0.00 | 100 | 1004.9 |
| 20260503180658 | 61 | 219 | 20.0 | 36.0 | 0.00 | 0.00 | 0.00 | 100 | 1005.0 |
| 20260503180227 | 61 | 231 | 22.0 | 35.0 | 0.00 | 0.00 | 0.00 | 100 | 1005.1 |
| 20260503175338 | 60 | 213 | 21.0 | 37.0 | 0.00 | 0.00 | 0.00 | 100 | 1005.0 |
| 20260503174658 | 60 | 248 | 21.0 | 29.0 | 0.00 | 0.00 | 0.00 | 100 | 1005.2 |
| 20260503174018 | 60 | 235 | 20.0 | 36.0 | 0.00 | 0.00 | 0.00 | 100 | 1005.2 |
| 20260503173338 | 60 | 232 | 21.0 | 36.0 | 0.00 | 0.00 | 0.00 | 100 | 1005.2 |
| 20260503172658 | 61 | 222 | 14.0 | 35.0 | 0.00 | 0.00 | 0.00 | 100 | 1005.9 |
| 20260503172018 | 59 | 230 | 22.0 | 36.0 | 0.00 | 0.00 | 0.00 | 100 | 1005.4 |
| 20260503171338 | 59 | 214 | 22.0 | 33.0 | 0.00 | 0.00 | 0.00 | 100 | 1005.4 |
| 20260503170658 | 59 | 225 | 22.0 | 32.0 | 0.00 | 0.00 | 0.00 | 100 | 1005.4 |
| 20260503150909 | 57 | 238 | 18.0 | 27.0 | 0.00 | 0.00 | 0.00 | 100 | 1006.6 |
| 20260503131338 | 51 | 217 | 13.0 | 22.0 | 0.00 | 0.00 | 0.00 | 100 | 1007.2 |
| 20260503130910 | 51 | 216 | 13.0 | 21.0 | 0.00 | 0.00 | 0.00 | 100 | 1007.4 |
| 20260503110658 | 51 | 235 | 12.0 | 19.0 | 0.00 | 0.00 | 0.00 | 100 | 1008.0 |